Miscellaneous Local Product
Issued by NWS Hastings, NE

Home | Current Version | Previous Version | Graphics & Text | Print | Product List | Glossary On
Versions: 1 2 3 4 5 6 7 8 9 10 11 12 13 14 15 16 17 18 19 20 21 22 23 24 25 26 27 28 29 30 31 32 33 34 35 36 37 38 39 40 41 42 43 44 45 46 47 48 49 50
788
AXUS43 KGID 271002
MISGRI

GID CWA HOURLY WEATHER ROUNDUP
NATIONAL WEATHER SERVICE HASTINGS NE
500 AM CDT SAT AUG 27 2016

NOTE: "FAIR" INDICATES FEW OR NO CLOUDS BELOW 12,000 FEET WITH NO
SIGNIFICANT WEATHER AND/OR OBSTRUCTIONS TO VISIBILITY.

...SOUTH CENTRAL NEBRASKA...

CITY           SKY/WX    TMP DP  RH WIND       PRES   REMARKS
GRAND ISLAND   MOCLDY    62  61  96 SW3       30.02S FOG
HASTINGS       FOG       62  61  96 CALM      30.03S VSB 1/4
KEARNEY        CLOUDY    61  55  82 W6        30.02S
ORD            CLOUDY    63  61  93 CALM      30.01S
YORK           FOG       66  64  94 CALM      30.02R VSB 1
AURORA         CLOUDY    64  64 100 CALM      30.01S FOG
LEXINGTON      CLEAR     54  52  94 NW7       30.04S FOG
HOLDREGE       CLEAR     54  53  95 NW5       30.02F
HEBRON         CLOUDY    67  66  97 CALM      30.01R

...NEBRASKA PANHANDLE...

CITY           SKY/WX    TMP DP  RH WIND       PRES   REMARKS
CHADRON        CLEAR     53  50  89 NE7       30.02S
ALLIANCE       CLOUDY    55  54  96 S14       30.05S FOG
SCOTTSBLUFF    CLEAR     52  50  93 SE8       30.05S
SIDNEY         FOG       51  51 100 S5        30.08F VSB 1/4

...WESTERN AND NORTH CENTRAL NEBRASKA...

CITY           SKY/WX    TMP DP  RH WIND       PRES   REMARKS
VALENTINE      CLOUDY    54  53  97 N3        30.01R
AINSWORTH      FOG       57  57 100 S7        30.01F VSB 1/2
ONEILL         FOG       59  58  96 CALM      30.00F VSB 1/4
BROKEN BOW     CLOUDY    60  60 100 W6        30.03S FOG
IMPERIAL       FOG       50  49  96 CALM      30.05F VSB 3/4
NORTH PLATTE   FOG       54  51  90 NW3       30.06F VSB 1/4
MCCOOK         CLEAR     53  52  96 N5        30.04F

...EASTERN NEBRASKA...

CITY           SKY/WX    TMP DP  RH WIND       PRES   REMARKS
NORFOLK        FOG       63  62  97 CALM      30.01S VSB 3/4
SO SIOUX CITY  CLOUDY    64  61  90 SE7       30.00S
TEKAMAH        CLOUDY    65  64  97 CALM      29.99F FOG
COLUMBUS       CLOUDY    64  57  77 CALM      30.01S
ALBION         CLOUDY    63  61  94 CALM      30.02R FOG
OMAHA EPPLEY   CLOUDY    66  63  90 SE5       29.99S FOG
OFFUTT AFB     CLOUDY    66  66 100 E6        29.98F FOG
MILLARD        CLOUDY    67  65  95 CALM      29.99F FOG
LINCOLN        CLOUDY    68  66  93 SE3       30.00F
NEBRASKA CITY  LGT RAIN  67  67 100 S5        29.99S VSB 3/4
BEATRICE       CLOUDY    67  66  97 S3        29.98R
FALLS CITY     CLOUDY    68  68 100 S3        29.98F

...NORTHERN KANSAS...

CITY           SKY/WX    TMP DP  RH WIND       PRES   REMARKS
GOODLAND       FOG       53  52  96 S7        30.05S VSB 1/4
HILL CITY      CLOUDY    55  54  96 CALM      30.04R
SMITH CENTER   CLEAR     57  57 100 CALM      30.03F
BELOIT         CLOUDY    63  61  94 CALM      30.00R
HAYS           CLOUDY    61  54  77 NE3       30.03R
RUSSELL        HVY RAIN  62  61  96 S12       30.02F
CONCORDIA      PTCLDY    64  63  96 SW6       30.00R
SALINA         LGT RAIN  66  65  96 SE14      29.98F
TOPEKA         CLOUDY    68  66  93 CALM      30.00F



USA.gov is the U.S. government's official web portal to all federal, state and local government web resources and services.